IRIDIUM 33 DEB, 34497

Orbit data source: Space-Track

IRIDIUM 33 DEB, 34497 is space debris in LEO originally from a launch on Sun, 14 Sep 1997 UTC launched from the Tyuratam Missile And Space Complex (TTMTR). The debris from Iridium 33, an American commercial communications satellite, has been tracked extensively since its accidental collision with the defunct Russian satellite Cosmos 2251 in 2009. This event, occurring at high speed in low Earth orbit (LEO), generated thousands of pieces of space debris, significantly increasing the risk of further collisions. The Iridium 33 debris cloud has impacted space traffic management and orbital debris mitigation strategies, making it a subject of ongoing study in space situational awareness.

Loading next visibility...
Identifier
34497, 1997-051GN
Orbit
LEO
Country
Flag of USUS
Related business
Manufacturer
Unknown
Mission
Spacecraft
Bus & Motor
Unknown
Mass
Unknown
Launch date (UTC)
1997-09-14 (29 years ago)
Launch vehicle
Unknown
Launch site
Tyuratam Missile And Space Complex (TTMTR)
Object type
Payload
Rocket body
Debris
Shape & HBR
Unknown shape, 0.1 m
Radar Cross Section
Small (<0.1 m²)

Expand to show TLE details & history
Last TLE update: 1 day ago

TLE from 1 day ago
0 IRIDIUM 33 DEB
1 34497U 97051GN  26208.28014203  .00000995  00000-0  37999-3 0  9990
2 34497  86.2804 315.5870 0077626 329.2805  59.5675 14.28173674901160
Epoch: 2026-07-27T06:43Z
TLE epoch observation values (Epoch: 2026-07-27T06:43:24.271Z)
Latitude
29.59878°
Longitude
-88.12503°
Altitude
773.753 km
Speed
7.484 km/s
True Right ascension
21h 10m 46s
True Declination
29° 27' 06"
Sunlit
Object was in full shadow at epoch
Visualization orbit readout
Latitude
Unknown
Longitude
Unknown
Altitude
Unknown
Speed
Unknown
Apparent Right ascension
Unknown
Apparent Declination
Unknown
Sunlit
N/A
Visualization observer readout
Local Sidereal Time
21:21:01
Azimuth
Unknown
Elevation
Unknown
Doppler factor
Unknown
Orbital elements
Apogee altitude
850.498 km
Perigee altitude
739.136 km
Semi-major axis
7,172.954 km
Eccentricity
0.00776
Inclination
86.2804°
RAAN
315.587°
Arg. of periapsis
329.2805°
True anomaly
60.33824°
Mean anomaly
59.5675°
Eccentric anomaly
59.95249°
Mean motion
3.5727 °/min
Orbital period
100.76 mins
BSTAR
0.00037999
Loading maneuver chart data...
Computing Atmospheric mass density...
Loading historical data...
Loading historical data...
Loading historical data...
Loading historical data...
Loading historical data...
Loading historical data...
Loading historical data...

Documentation

Showing up to 5 results
|